Temperature
12 12 12 12 12 12 12 11 11 11 11 10 10 10 10 10 10 10 10 10 10 10 10 10 9 9 9 9 9 9 9 9 9 9 9 9 9 9 9 9 9 9 9
11 11 12 12 12 12 12 11 11 11 11 10 10 10 10 10 10 9 9 9 9 9 9 9 9 9 9 9 8 8 8 8 8 8 8 8 8 8 8 8 8 8 8
11 11 11 12 11 11 11 11 11 11 10 10 10 10 9 9 9 9 9 9 9 9 9 9 8 8 8 8 8 8 8 8 7 7 6 6 6 6 7 7 7 7 7
10 11 11 11 11 11 11 11 11 11 10 10 10 10 10 9 9 9 9 9 8 8 8 8 8 8 8 8 7 7 7 7 7 7 6 6 5 5 5 6 7 7 7
10 10 11 11 11 11 11 11 10 10 10 10 10 9 9 9 9 9 8 8 8 8 8 8 8 7 7 7 7 7 7 7 6 6 6 6 5 5 4 4 6 6 6
9 9 10 10 10 10 10 10 10 10 10 10 9 9 9 9 9 8 8 8 8 7 7 7 7 7 7 7 7 6 6 6 6 6 5 5 5 4 4 4 4 5 6
8 8 9 9 10 10 10 10 10 9 9 9 9 9 9 9 8 8 8 8 7 7 7 7 7 7 7 6 6 6 6 6 6 5 5 5 5 4 4 4 3 4 5
7 8 8 9 9 9 10 10 9 9 9 9 9 9 8 8 8 8 8 7 7 7 7 7 7 6 6 6 6 6 6 5 5 5 5 5 4 4 4 3 3 2 3
7 7 8 8 8 9 9 9 9 9 9 9 8 8 8 8 8 8 7 7 7 7 7 7 6 6 6 6 5 5 5 5 5 5 4 4 4 4 4 3 3 2 1
6 7 7 7 8 8 9 9 9 9 8 8 8 8 8 8 8 7 7 7 7 7 6 6 6 6 5 5 5 5 5 5 4 4 4 4 4 3 3 3 3 2 2
6 6 6 7 7 7 8 8 8 8 8 8 8 7 7 7 7 7 7 7 6 6 6 6 6 5 5 5 5 5 4 4 4 4 4 4 3 3 3 3 3 2 2
5 5 6 6 6 7 7 7 7 7 7 7 7 7 7 7 7 7 7 6 6 6 6 5 5 5 5 5 4 4 4 4 4 4 3 3 3 3 3 3 2 2 1
5 5 5 5 6 6 6 6 7 7 7 7 7 6 6 6 6 6 6 6 6 6 5 5 5 5 5 5 4 4 4 4 3 3 3 3 3 3 3 2 2 2 1
5 5 5 5 5 5 6 6 6 6 6 6 6 6 6 6 6 6 6 6 5 5 5 5 5 5 4 4 4 4 4 3 3 3 3 3 2 2 2 2 1 1 1
4 4 5 5 5 5 5 5 6 6 6 6 6 6 6 5 5 5 5 5 5 5 5 5 4 4 4 4 4 4 3 3 3 3 2 2 2 2 2 1 1 1 0
4 4 4 4 4 4 5 5 5 5 5 5 5 5 5 5 5 5 5 5 4 4 4 4 4 4 4 4 3 3 3 3 3 2 2 2 2 2 1 1 1 0 -0
4 4 4 4 4 4 4 4 5 5 5 5 5 5 4 4 4 4 4 4 4 4 4 4 4 4 4 3 3 3 3 3 2 2 2 2 2 1 1 1 1 0 -0
3 3 3 3 4 4 4 4 4 4 4 4 4 4 4 4 4 4 4 4 4 4 4 3 3 3 3 3 3 3 2 2 2 2 1 1 1 1 0 0 0 0 -0
3 3 3 3 3 4 4 4 4 4 4 4 4 4 4 3 3 3 3 3 3 3 3 3 3 3 3 3 2 2 2 2 2 2 1 1 1 0 -0 -0 -0 -0 -0
2 2 3 3 3 3 3 3 3 3 3 3 3 3 3 3 3 3 3 3 3 3 3 3 3 2 2 2 2 2 2 1 1 1 1 0 0 -0 -0 -1 -1 -1 -1
2 2 2 3 3 3 3 3 3 3 3 3 3 3 2 2 2 2 2 2 2 2 2 2 2 2 2 2 1 1 1 1 1 1 0 0 -0 -0 -1 -1 -1 -1 -1
1 2 2 2 2 2 2 2 2 2 2 2 2 2 2 2 2 2 2 2 2 2 2 2 2 1 1 1 1 1 0 0 0 0 -0 -0 -0 -1 -1 -1 -1 -1 -1
1 1 1 2 2 2 2 2 2 2 2 2 2 1 1 1 1 1 1 1 1 1 1 1 1 1 1 0 0 0 0 -0 -0 -1 -1 -1 -1 -1 -1 -1 -1 -2 -2
0 0 1 1 1 1 1 1 1 1 1 1 1 1 1 1 1 1 1 1 1 1 1 0 0 0 -0 -0 -0 -0 -0 -1 -1 -1 -1 -1 -1 -1 -1 -2 -2 -2 -2
-1 -0 -0 0 0 1 1 1 1 1 0 0 0 0 0 0 0 0 0 0 0 0 -0 -0 -0 -1 -1 -1 -1 -1 -1 -1 -1 -1 -1 -1 -1 -2 -2 -2 -2 -2 -2
-1 -1 -1 -0 -0 -0 0 -0 -0 -0 -0 -0 -0 -0 -1 -1 -0 -0 -0 -0 -0 -0 -1 -1 -1 -1 -1 -1 -1 -1 -1 -1 -2 -2 -2 -2 -2 -2 -2 -2 -2 -3 -3
Wind_Speed
6 5 6 7 7 7 8 8 8 8 7 4 4 3 2 2 1 1 2 3 3 3 3 2 2 2 2 2 2 2 2 3 3 2 3 3 3 2 3 3 3 4 6
4 4 6 7 9 10 9 9 9 9 8 6 4 3 3 2 1 1 2 2 3 3 3 2 1 1 1 2 2 2 1 2 3 2 2 4 4 3 3 3 3 4 5
7 6 7 8 9 10 11 11 10 9 8 6 5 4 3 2 1 1 1 0 1 2 2 2 2 1 1 0 1 1 1 1 2 2 1 1 2 5 3 3 4 4 4
5 5 7 8 10 10 10 10 10 9 8 8 7 7 5 4 3 2 1 1 1 1 2 2 2 1 1 0 1 0 0 0 1 1 0 1 2 2 4 4 3 5 6
5 6 7 8 8 8 8 8 9 8 8 8 9 8 5 3 2 2 2 1 0 0 1 1 1 1 1 1 0 0 0 0 1 1 1 1 1 2 3 6 6 6 5
3 3 3 4 4 5 7 8 9 8 8 8 8 8 7 5 5 3 3 2 1 0 0 1 1 1 1 1 1 1 1 1 1 2 2 2 2 2 2 5 8 9 6
2 2 2 3 4 6 8 8 9 8 8 8 8 8 8 7 7 5 4 3 2 1 2 1 1 1 1 1 1 1 1 2 2 3 3 3 3 3 3 5 7 8 7
1 2 3 3 4 5 7 8 9 8 8 8 7 6 6 5 5 5 4 4 3 3 3 2 1 1 1 1 1 1 2 2 3 3 3 3 4 3 3 3 5 8 7
1 2 1 2 3 4 6 7 8 8 8 7 7 6 6 6 5 5 4 3 3 2 2 2 2 1 1 1 1 2 2 2 3 4 4 4 4 4 4 4 4 4 7
1 0 1 1 1 2 4 5 6 8 7 7 7 6 6 6 5 4 4 4 3 2 2 2 1 1 1 1 1 2 2 3 3 3 4 4 4 4 4 4 4 4 5
1 1 1 1 2 2 3 4 4 5 5 6 5 5 5 4 4 4 4 4 3 3 3 2 2 2 2 2 2 3 3 3 4 4 4 5 5 5 4 4 4 4 5
2 2 2 3 3 3 2 2 3 4 5 5 5 4 4 4 4 4 3 3 3 3 2 2 2 2 2 2 3 3 3 4 4 5 5 6 5 6 5 4 5 5 5
3 3 3 3 2 2 2 1 2 3 3 4 5 4 4 4 4 3 3 3 2 2 2 2 2 2 2 3 3 3 4 4 5 5 5 6 5 7 5 5 5 5 6
3 3 3 2 2 2 1 1 1 2 3 4 5 4 4 4 3 3 2 2 2 2 2 2 2 2 2 3 3 3 4 4 4 4 5 5 6 7 6 6 6 6 6
3 2 2 2 2 2 2 1 1 2 3 4 4 4 3 3 2 2 2 1 1 1 1 1 1 2 2 2 3 3 4 4 4 4 5 5 7 9 7 6 6 5 6
2 2 2 1 1 1 1 1 1 1 3 3 3 2 3 3 2 2 2 1 1 1 1 1 1 2 2 5 5 4 3 3 4 5 5 6 7 9 10 11 10 8 7
1 1 1 1 1 1 1 1 1 1 2 3 2 2 2 3 2 2 2 1 1 0 0 1 1 2 4 5 6 5 3 3 4 4 5 6 6 8 6 9 10 9 10
2 2 2 2 2 1 1 1 1 1 2 2 2 2 2 2 2 2 1 1 0 0 0 1 1 2 4 6 5 6 3 3 4 4 5 5 6 6 7 6 6 6 7
2 2 1 1 1 1 1 1 1 1 2 2 2 2 2 2 2 1 1 0 0 0 1 1 1 2 4 6 6 5 2 3 4 5 5 5 5 9 10 6 7 8 7
1 1 1 1 1 1 1 2 1 1 1 1 1 1 2 2 1 1 1 0 0 0 1 1 1 1 3 5 6 6 2 3 4 4 4 6 7 10 10 6 6 7 8
2 1 1 1 1 1 2 2 1 0 0 1 2 2 2 1 1 1 1 1 1 1 1 1 2 2 3 5 6 6 3 3 4 4 4 5 9 10 10 8 5 7 8
2 2 2 2 2 1 2 2 1 1 1 2 2 2 2 1 1 2 1 1 1 1 1 1 2 2 3 4 6 8 6 5 4 4 4 5 9 10 10 7 7 9 8
3 2 2 2 3 2 2 2 1 1 2 3 3 2 2 2 2 1 1 1 1 1 1 1 2 3 3 4 7 8 8 7 4 4 7 8 8 8 6 7 9 7 4
2 2 2 2 2 3 2 1 2 2 3 3 2 2 2 2 2 1 1 1 0 1 1 1 2 3 3 3 4 4 4 6 5 4 5 7 7 6 6 6 6 4 4
2 2 2 2 2 2 3 2 2 3 3 2 2 2 2 2 2 2 2 1 0 1 1 1 2 2 3 5 7 6 4 4 4 4 3 4 4 5 5 5 5 4 5
2 2 2 2 2 2 3 3 2 2 3 2 2 2 2 2 2 2 3 4 3 3 3 2 2 3 4 6 7 7 7 7 6 4 3 4 4 4 5 5 5 5 5
Wind_Direction
233 206 189 176 164 162 163 165 158 155 149 144 144 141 149 147 136 119 123 121 116 112 104 89 66 59 56 28 12 5 7 1 347 355 337 321 308 311 305 312 317 321 322
223 204 185 176 176 175 173 170 168 167 168 166 156 143 137 143 154 140 116 124 123 123 119 110 114 90 70 37 23 21 8 0 9 23 4 343 334 337 320 323 316 312 321
214 206 193 188 182 182 180 180 178 173 169 154 132 110 90 81 96 123 162 151 137 126 120 122 117 119 115 77 4 35 53 343 350 31 85 31 300 318 314 306 309 313 316
218 205 197 191 193 193 183 177 175 172 167 157 157 156 164 174 191 175 176 172 143 138 130 134 133 140 140 148 288 23 177 160 319 331 325 206 230 294 313 308 304 304 306
217 209 202 199 198 189 178 174 169 170 167 166 167 165 167 167 149 143 148 155 159 155 149 149 140 151 170 203 260 329 287 200 246 275 283 292 288 242 268 302 313 312 293
230 221 203 178 182 176 171 167 168 173 171 170 171 173 171 163 156 165 171 183 209 233 195 152 144 168 187 214 231 234 245 251 248 254 251 244 259 273 265 285 304 308 304
203 192 178 180 182 178 174 171 170 175 174 172 176 180 177 172 176 180 182 184 198 235 236 210 194 208 229 236 228 231 254 248 252 251 255 252 251 252 260 280 297 302 303
224 206 201 191 187 181 175 172 173 175 175 176 180 179 175 176 183 183 185 193 203 217 216 211 211 230 237 250 244 246 255 258 257 266 261 266 266 253 254 261 290 307 307
255 220 195 174 171 170 175 175 172 172 176 178 175 177 178 180 184 181 182 195 206 211 200 208 217 236 238 239 246 257 260 262 260 261 261 265 270 262 259 259 257 273 302
323 37 144 149 150 157 164 162 170 175 175 174 177 182 184 185 179 173 184 195 202 199 192 196 208 236 261 268 260 270 266 263 270 266 267 271 275 274 265 262 262 252 264
355 36 54 64 79 84 127 147 154 160 165 171 173 172 180 176 169 178 191 195 194 189 188 201 210 232 255 262 263 269 271 270 276 278 276 276 280 281 274 272 271 266 263
35 46 63 61 62 67 84 137 152 160 170 169 164 166 162 159 167 182 191 188 193 193 195 199 209 235 256 261 255 268 270 266 274 279 280 283 292 285 279 276 276 273 265
47 43 49 52 55 58 59 92 149 161 154 154 153 151 156 164 177 186 188 188 190 189 188 194 215 241 255 259 259 261 263 262 265 271 276 283 288 287 285 283 280 280 284
54 52 44 31 27 33 47 67 123 145 142 144 148 158 173 179 181 178 177 186 185 187 195 210 226 245 260 266 265 269 269 268 269 270 272 277 276 276 281 284 279 285 291
29 35 33 19 18 16 18 35 81 127 139 142 153 172 172 163 155 155 160 165 179 201 205 208 257 274 272 274 281 274 272 274 283 284 282 282 287 290 291 292 289 290 293
350 0 3 13 15 9 8 20 41 122 136 144 154 155 148 148 154 158 152 152 170 193 157 190 257 286 292 301 301 300 277 280 287 293 295 293 290 297 303 303 301 298 296
277 302 314 305 292 303 355 350 330 114 128 135 136 140 147 154 163 156 141 160 187 177 209 286 277 278 291 305 309 311 312 296 293 294 301 305 305 309 303 302 307 304 302
260 280 290 311 322 343 3 10 29 102 127 128 130 137 138 142 144 140 151 167 172 185 260 285 287 292 302 311 312 316 317 298 294 290 290 295 302 307 312 312 311 308 306
267 267 285 288 328 348 19 65 39 89 121 137 139 139 140 138 135 153 169 140 119 333 296 279 283 295 304 316 318 322 312 303 297 295 294 298 300 308 319 321 315 315 317
356 345 353 10 14 358 70 95 72 92 150 162 147 136 135 138 149 179 186 79 131 287 310 317 310 301 302 318 326 329 312 307 307 306 301 309 314 316 322 320 316 317 319
0 15 49 33 353 39 93 91 69 45 346 102 104 95 100 122 135 100 73 92 72 49 8 333 327 320 316 326 333 335 333 305 307 308 307 305 315 319 322 325 316 312 319
9 33 66 33 13 50 96 80 37 19 66 86 90 82 77 78 83 91 61 69 89 72 12 353 341 334 325 338 334 333 331 327 310 305 305 307 316 321 325 330 329 331 336
5 30 71 49 22 28 73 87 19 60 83 86 83 75 66 60 71 101 98 60 63 67 358 355 339 333 337 336 340 337 335 332 325 311 321 327 331 333 334 337 340 346 345
19 38 57 61 28 20 40 64 53 75 91 93 89 82 77 61 50 52 81 89 54 16 358 342 326 328 333 333 332 327 329 335 333 328 334 344 348 352 347 345 347 348 339
18 39 47 46 29 29 41 43 59 90 91 91 94 79 69 79 59 40 33 16 309 240 269 286 296 319 323 325 331 335 334 331 328 338 347 353 353 359 356 351 350 352 351
31 41 41 40 25 31 35 28 42 94 104 90 85 80 74 65 61 50 27 22 20 16 6 351 336 327 324 331 338 341 343 345 350 358 356 353 351 347 344 342 343 346 347
Height
1458 1461 1464 1467 1470 1473 1475 1478 1481 1484 1486 1488 1490 1492 1494 1496 1497 1498 1499 1500 1501 1501 1501 1501 1501 1501 1501 1500 1499 1499 1498 1497 1496 1494 1492 1491 1491 1490 1490 1489 1488 1487 1486
1454 1457 1460 1463 1466 1469 1472 1475 1478 1480 1483 1486 1488 1491 1492 1494 1495 1496 1497 1498 1498 1499 1500 1500 1500 1499 1499 1498 1498 1497 1496 1495 1494 1492 1490 1489 1488 1487 1486 1486 1485 1483 1482
1449 1452 1455 1458 1461 1465 1468 1471 1474 1477 1480 1483 1486 1488 1490 1491 1493 1494 1495 1496 1496 1497 1497 1498 1498 1498 1497 1497 1496 1495 1494 1493 1493 1492 1491 1489 1487 1484 1482 1482 1481 1480 1478
1446 1448 1451 1454 1457 1461 1464 1468 1471 1474 1477 1480 1482 1484 1486 1487 1489 1491 1492 1494 1494 1495 1495 1496 1496 1496 1495 1495 1494 1494 1493 1492 1491 1490 1490 1489 1487 1485 1479 1478 1477 1476 1474
1443 1445 1447 1450 1454 1457 1461 1464 1468 1471 1474 1477 1479 1482 1484 1485 1487 1489 1490 1491 1492 1493 1493 1494 1494 1494 1493 1493 1492 1492 1491 1490 1489 1488 1487 1486 1485 1483 1480 1474 1472 1470 1469
1440 1442 1444 1447 1450 1454 1457 1461 1464 1467 1470 1473 1476 1478 1480 1482 1484 1486 1487 1488 1489 1490 1491 1491 1491 1491 1491 1491 1490 1489 1488 1488 1487 1486 1484 1483 1482 1480 1478 1473 1468 1465 1463
1438 1439 1441 1443 1446 1449 1453 1457 1460 1464 1467 1470 1472 1475 1477 1479 1481 1483 1484 1485 1486 1487 1488 1488 1488 1488 1488 1488 1487 1487 1486 1485 1484 1483 1482 1480 1479 1478 1476 1472 1467 1462 1458
1436 1437 1439 1441 1443 1445 1449 1453 1456 1460 1463 1466 1469 1472 1474 1476 1478 1480 1482 1483 1484 1484 1485 1486 1486 1486 1486 1485 1484 1483 1483 1482 1481 1479 1478 1477 1476 1474 1472 1470 1466 1459 1454
1435 1436 1437 1438 1440 1442 1446 1449 1453 1456 1459 1463 1466 1468 1471 1473 1475 1477 1479 1480 1481 1482 1482 1483 1483 1483 1482 1482 1481 1480 1479 1478 1477 1476 1475 1473 1472 1471 1469 1467 1464 1461 1454
1433 1434 1435 1437 1438 1441 1444 1447 1450 1453 1456 1460 1463 1465 1468 1470 1472 1474 1475 1477 1478 1478 1479 1479 1479 1479 1479 1478 1478 1477 1476 1475 1473 1472 1471 1469 1468 1466 1464 1462 1461 1458 1455
1433 1433 1435 1436 1438 1440 1442 1445 1448 1451 1454 1457 1460 1462 1465 1467 1469 1471 1472 1473 1474 1475 1475 1476 1476 1476 1475 1475 1474 1473 1472 1471 1470 1468 1467 1465 1464 1462 1460 1457 1456 1454 1451
1433 1434 1435 1436 1437 1439 1441 1443 1446 1448 1451 1454 1457 1459 1462 1464 1466 1468 1469 1470 1471 1472 1472 1472 1472 1472 1472 1471 1470 1469 1468 1467 1465 1464 1462 1460 1459 1457 1455 1453 1451 1449 1446
1433 1434 1435 1436 1437 1438 1440 1442 1444 1446 1449 1452 1454 1457 1459 1461 1463 1464 1466 1467 1468 1468 1469 1469 1469 1469 1468 1467 1466 1465 1464 1462 1461 1460 1458 1456 1454 1452 1450 1448 1446 1443 1441
1434 1434 1435 1436 1437 1438 1439 1441 1442 1445 1447 1450 1452 1454 1456 1458 1460 1461 1462 1464 1464 1465 1465 1466 1466 1465 1464 1464 1462 1461 1460 1458 1457 1455 1453 1452 1450 1448 1445 1443 1441 1439 1436
1434 1434 1435 1436 1436 1437 1438 1440 1441 1443 1445 1447 1449 1451 1453 1455 1457 1458 1460 1461 1461 1462 1462 1462 1462 1462 1461 1460 1459 1457 1456 1454 1452 1451 1449 1448 1446 1444 1442 1439 1436 1434 1431
1434 1434 1435 1435 1436 1437 1437 1438 1439 1441 1443 1445 1447 1449 1451 1452 1454 1455 1456 1457 1458 1459 1459 1459 1459 1458 1457 1456 1455 1454 1452 1450 1448 1447 1445 1443 1442 1440 1438 1435 1433 1431 1428
1433 1434 1434 1435 1435 1436 1436 1437 1438 1440 1441 1443 1445 1446 1448 1450 1451 1452 1453 1454 1455 1455 1456 1456 1455 1455 1454 1453 1452 1450 1448 1447 1445 1443 1441 1439 1437 1435 1433 1430 1428 1427 1425
1432 1433 1433 1433 1434 1435 1436 1436 1437 1438 1439 1441 1442 1444 1445 1447 1448 1449 1450 1451 1451 1452 1452 1452 1452 1451 1450 1449 1448 1446 1445 1443 1441 1439 1437 1435 1432 1430 1428 1426 1424 1422 1420
1431 1431 1432 1432 1433 1433 1434 1435 1435 1436 1438 1439 1440 1441 1443 1444 1445 1446 1447 1448 1448 1449 1449 1449 1448 1448 1447 1446 1445 1443 1441 1439 1438 1436 1434 1432 1429 1427 1425 1423 1420 1417 1415
1429 1430 1430 1431 1431 1432 1432 1433 1433 1434 1436 1437 1438 1439 1441 1442 1443 1444 1445 1445 1446 1446 1446 1445 1445 1444 1444 1443 1441 1440 1437 1436 1434 1432 1430 1428 1426 1424 1422 1419 1416 1413 1411
1428 1428 1428 1429 1429 1430 1431 1431 1432 1433 1434 1435 1436 1437 1438 1440 1440 1441 1442 1443 1443 1443 1443 1442 1442 1441 1440 1439 1438 1436 1434 1433 1430 1428 1427 1425 1423 1421 1419 1417 1414 1411 1409
1426 1426 1426 1427 1428 1429 1429 1430 1430 1432 1432 1433 1434 1435 1436 1437 1438 1439 1440 1440 1440 1440 1440 1439 1439 1438 1437 1436 1435 1433 1432 1430 1428 1426 1424 1422 1420 1418 1416 1414 1411 1409 1406
1425 1425 1425 1425 1426 1427 1428 1428 1429 1430 1431 1431 1432 1433 1434 1435 1436 1437 1437 1437 1438 1437 1437 1436 1435 1435 1434 1433 1432 1431 1429 1427 1426 1423 1421 1419 1417 1415 1413 1411 1409 1406 1404
1424 1424 1424 1424 1425 1426 1427 1427 1428 1428 1429 1430 1430 1431 1432 1433 1434 1435 1435 1435 1435 1435 1434 1434 1433 1433 1432 1431 1429 1428 1426 1425 1423 1421 1419 1417 1415 1413 1411 1409 1407 1404 1402
1423 1423 1423 1423 1424 1425 1425 1426 1426 1427 1427 1428 1429 1430 1431 1432 1432 1433 1434 1434 1434 1434 1433 1432 1432 1431 1429 1429 1428 1426 1424 1423 1421 1419 1417 1414 1412 1410 1409 1407 1405 1403 1401
1422 1423 1423 1423 1423 1423 1424 1425 1425 1426 1426 1427 1428 1429 1430 1430 1431 1431 1432 1432 1432 1432 1432 1431 1431 1429 1428 1427 1425 1424 1422 1421 1419 1417 1414 1412 1411 1409 1407 1405 1403 1402 1400